Wind_Speed
4 4 5 7 6 6 5 5 6 3 4 6 6 5 6 6 6 7 9 10 11 11 12 13 13 13 12 12 11 11 10 10 10 10 10 11 12 12 12 11 11 11 11 11 11 10 10 11 11 11 12 12 12 13 14 15 15 15 16 16 16 16
5 5 5 6 5 5 5 6 5 2 2 4 5 3 4 3 3 5 6 8 9 10 12 13 13 13 13 12 12 11 11 10 10 9 10 10 10 11 11 12 12 12 12 12 11 11 11 11 12 12 12 13 13 14 15 16 17 17 18 18 17 17
5 6 6 6 6 5 5 5 4 3 1 3 3 2 3 3 3 4 4 5 6 9 11 12 12 12 13 12 12 11 11 10 9 9 9 9 10 10 11 11 12 12 11 12 11 11 12 12 13 13 13 13 14 14 15 16 17 17 18 17 17 16
5 6 6 5 6 6 5 5 4 4 4 4 4 3 4 4 4 5 5 5 5 7 8 9 11 11 12 12 12 11 10 10 10 10 10 10 10 10 11 11 12 11 11 11 12 12 13 13 14 14 14 15 15 15 15 15 16 16 16 16 16 15
4 4 4 4 5 5 5 5 5 6 7 7 7 6 5 5 6 6 7 7 7 7 8 9 9 11 12 12 12 11 10 11 12 11 10 11 11 11 10 11 11 11 11 11 11 12 13 14 14 14 15 15 15 16 16 15 16 15 15 16 16 15
3 3 4 5 5 5 5 5 5 7 9 10 10 9 7 7 6 6 7 8 9 9 9 10 10 12 13 13 12 12 12 12 11 10 10 10 10 10 10 10 10 10 10 9 9 10 11 13 14 14 15 15 16 16 16 16 16 14 15 17 16 15
1 2 4 4 3 4 5 6 6 6 8 9 10 10 10 8 6 6 7 8 8 9 10 10 11 12 13 12 12 12 12 11 11 10 10 10 9 9 9 8 8 8 8 8 8 8 9 10 11 12 13 14 15 15 16 16 16 15 16 17 16 16
4 3 3 2 2 2 2 5 6 5 5 4 6 10 11 8 6 7 7 8 9 10 10 10 10 11 12 11 11 11 11 11 10 10 10 10 9 8 8 8 8 8 8 8 8 8 8 8 9 10 11 13 14 14 15 15 15 15 16 17 17 17
4 3 2 2 2 1 3 1 2 2 3 4 5 9 10 7 7 8 8 9 11 11 10 9 10 11 11 10 10 11 10 10 10 9 9 9 8 8 8 8 8 9 9 9 9 9 9 9 9 10 10 11 13 14 14 15 15 15 16 17 18 18
2 2 2 2 2 1 3 3 2 4 3 6 7 8 8 7 9 9 9 9 11 12 10 10 10 10 10 10 9 9 9 9 9 8 8 8 9 9 9 9 9 10 10 10 10 11 11 11 12 12 12 12 12 14 14 15 15 15 16 18 18 18
3 2 2 3 2 1 4 6 6 6 6 8 8 7 7 8 9 9 9 9 10 11 10 10 10 10 10 9 8 9 9 9 9 9 9 9 10 10 10 11 11 12 13 13 13 13 13 13 14 14 14 14 14 15 15 15 15 16 17 18 18 18
4 3 3 3 3 3 3 6 7 8 9 8 7 7 8 9 9 9 9 9 10 10 10 10 10 10 9 8 8 8 9 10 10 10 10 10 11 11 12 12 13 14 15 15 15 15 15 16 16 15 15 15 16 16 17 17 16 16 17 18 19 18
4 4 4 4 4 4 4 5 6 7 8 8 7 8 9 9 8 8 9 10 10 11 11 10 10 9 9 8 9 9 10 10 11 11 11 11 11 12 13 14 15 16 16 16 16 17 17 17 17 17 17 17 17 17 18 18 18 18 18 18 18 19
4 4 4 4 5 5 5 5 6 7 7 7 8 7 7 7 7 8 9 11 12 12 12 11 10 10 10 10 10 11 11 12 12 11 11 12 12 13 14 15 16 17 17 18 18 18 18 19 18 18 18 18 19 19 19 19 19 19 19 19 19 21
5 4 4 4 4 5 6 5 5 6 7 7 8 7 7 7 7 8 9 10 10 10 10 10 11 11 12 12 12 13 12 12 12 12 12 13 13 14 15 16 16 17 18 19 19 18 19 19 20 20 20 20 20 20 21 21 20 20 20 20 21 21
5 5 4 4 4 5 6 6 5 5 6 7 7 7 7 8 8 8 8 9 10 10 10 11 12 12 13 13 13 13 13 13 14 14 15 15 15 15 16 16 17 18 18 19 19 19 20 20 20 21 21 22 22 22 23 23 22 22 22 22 22 22
7 6 5 5 5 6 6 6 6 6 6 7 7 7 7 8 8 8 9 10 10 11 11 12 12 13 13 13 13 14 14 15 15 16 17 17 17 18 17 17 18 18 19 20 20 21 21 22 22 22 22 23 23 24 24 25 25 25 24 24 24 24
8 8 7 6 6 7 7 7 7 8 8 9 9 9 9 9 9 9 10 10 11 12 12 13 13 13 14 14 15 15 16 16 17 17 18 18 19 19 19 19 19 20 20 20 21 21 22 23 24 23 23 23 24 24 25 26 26 27 27 27 28 28
9 9 8 7 7 8 8 8 8 9 9 10 10 10 10 10 10 11 11 12 13 14 14 14 15 15 15 16 16 16 17 17 17 18 19 19 20 20 21 21 22 22 22 22 22 22 23 24 25 25 25 25 25 25 26 26 27 28 29 30 31 31
10 9 9 8 8 9 10 10 10 10 11 11 11 11 11 11 12 12 13 14 14 15 15 16 16 16 16 16 17 17 17 18 18 19 20 21 21 22 22 22 23 23 24 24 23 23 24 25 26 26 27 27 27 28 28 28 29 29 30 30 32 33
10 10 9 9 9 10 10 11 11 12 12 12 13 13 12 12 13 13 14 15 15 16 16 17 17 17 17 17 17 18 18 19 20 20 21 22 22 22 22 22 22 22 23 23 23 22 23 24 25 26 27 28 28 29 29 30 31 31 32 32 33 34
11 10 10 9 10 10 11 11 12 12 13 13 14 14 14 14 14 15 15 16 16 17 17 17 17 18 18 18 18 19 19 20 20 20 20 21 21 20 20 20 21 21 21 22 22 22 23 23 24 24 25 26 27 28 28 29 30 30 31 32 34 34
12 11 10 10 10 11 11 12 12 13 13 14 14 15 15 15 15 16 16 17 18 18 18 18 18 18 18 19 19 19 19 19 19 18 18 18 18 18 19 20 21 22 23 23 24 24 24 25 25 25 26 26 27 28 28 28 28 29 29 31 32 33
13 13 11 10 10 11 12 12 13 14 14 15 15 15 15 15 16 16 16 18 19 20 20 20 20 19 19 19 19 19 18 17 17 16 16 17 17 18 20 21 22 23 24 25 25 25 26 26 26 27 27 28 28 29 30 30 30 30 30 31 31 32
13 13 12 10 10 10 11 12 13 14 15 15 15 15 16 16 16 17 17 18 19 20 21 22 21 21 20 20 19 18 17 17 17 17 17 18 19 20 22 23 24 25 26 26 27 27 27 27 28 28 28 29 29 30 31 31 32 32 32 32 32 32
13 12 11 10 10 10 11 13 14 15 15 14 14 15 16 16 17 17 17 18 19 20 21 21 22 21 21 20 19 19 18 18 18 19 20 21 22 23 23 24 25 26 27 27 28 28 28 28 29 29 29 30 30 31 31 31 31 32 33 34 33 33
14 13 11 11 11 11 12 13 14 15 15 15 15 15 16 16 16 16 17 17 18 18 18 19 20 20 21 21 20 20 20 20 21 22 23 23 24 24 25 25 26 27 28 28 29 29 30 30 30 30 30 30 31 31 32 32 33 34 34 35 35 34
14 15 15 13 11 11 12 13 14 15 15 15 15 15 15 16 16 16 17 17 17 17 17 17 19 20 21 21 21 21 21 22 22 23 24 24 25 26 26 27 27 27 28 28 29 30 30 31 31 31 31 31 31 31 31 32 33 33 34 36 35 34
13 14 15 13 11 11 12 12 13 14 14 14 14 14 15 15 16 16 17 18 18 18 18 18 19 20 22 22 23 23 23 23 23 23 24 24 25 25 26 27 27 27 27 27 28 29 30 30 31 31 31 31 31 31 31 31 32 33 34 34 33 32
11 12 12 11 11 11 11 12 13 13 14 14 14 14 14 15 16 17 18 19 20 20 20 20 21 22 23 24 25 25 25 25 24 24 24 24 24 25 25 26 26 26 27 27 28 29 29 30 31 31 32 32 31 31 30 30 30 30 30 32 32 31
12 11 11 10 11 11 11 12 12 13 13 14 14 14 15 16 17 18 19 20 21 22 22 22 22 23 23 24 25 25 25 24 23 23 23 23 24 24 25 25 26 26 27 27 28 29 30 30 30 31 30 30 28 27 27 26 26 25 26 30 32 31
13 12 11 10 10 11 12 12 12 13 13 14 15 15 16 17 18 19 20 20 21 21 22 22 22 22 23 23 23 24 24 24 23 23 23 23 23 24 24 25 25 26 27 28 28 29 29 29 28 27 26 25 24 23 23 22 23 22 24 28 31 30
13 12 12 11 11 12 13 13 13 14 14 15 15 16 16 17 18 19 20 20 21 21 21 22 22 22 22 22 23 23 24 24 23 23 23 23 23 23 23 24 25 26 28 28 28 28 27 26 25 24 22 21 21 21 22 22 22 23 24 27 30 31
12 12 12 11 12 12 13 14 14 15 15 16 16 16 17 18 19 20 20 21 21 21 21 21 21 21 22 21 22 22 23 23 23 23 23 22 22 23 23 25 26 27 28 28 26 25 23 22 21 20 20 21 21 21 22 23 23 24 25 26 28 29
12 12 12 12 13 13 13 14 15 16 17 17 18 18 18 18 19 20 21 21 20 20 20 20 20 20 20 20 21 21 22 22 22 22 22 22 22 23 24 25 27 27 26 25 22 20 18 18 18 19 20 21 22 22 23 24 24 24 24 24 24 25
13 13 13 13 14 14 15 16 17 18 19 20 21 21 20 20 20 20 20 20 20 20 19 19 19 20 20 20 21 21 21 21 21 21 21 21 22 23 24 26 26 24 22 20 18 16 16 17 17 18 19 21 22 23 23 22 21 20 21 21 21 21
14 15 15 16 16 17 18 19 20 21 21 22 22 22 22 21 21 20 20 19 19 19 18 18 19 20 20 21 21 22 22 21 21 21 21 21 22 23 25 25 23 20 17 16 15 15 16 17 17 18 20 21 22 21 19 18 17 17 18 19 19 17
Wind_Direction
293 301 306 320 330 335 327 321 318 274 200 211 219 209 195 199 209 199 191 191 192 191 188 189 190 187 184 184 186 191 192 191 193 194 195 193 196 202 208 215 221 226 231 233 233 235 239 243 247 253 258 260 260 260 260 260 260 260 261 262 264 266
285 291 296 305 313 320 312 321 321 262 177 206 210 181 185 210 214 189 182 189 194 198 194 193 194 193 190 189 190 193 197 197 196 197 201 204 207 211 214 219 223 228 233 237 238 237 240 243 246 249 254 258 260 259 260 261 262 264 264 265 266 266
279 283 289 294 298 299 294 305 302 273 234 210 206 196 217 238 223 194 182 188 204 204 197 196 198 197 195 193 194 197 201 203 203 206 209 214 218 222 226 229 232 235 240 246 249 249 249 250 250 250 250 251 253 255 256 259 261 263 264 265 266 265
270 276 285 287 289 290 283 279 265 263 264 241 238 255 252 248 232 217 205 203 211 204 201 206 204 204 202 200 200 200 206 211 213 215 217 220 224 228 233 238 241 243 246 250 253 256 256 254 253 252 251 250 251 252 254 257 259 261 264 265 263 261
269 272 281 279 279 280 277 271 257 255 262 259 253 252 255 250 238 231 225 220 221 219 220 222 218 215 211 208 206 203 211 221 219 219 222 223 225 226 231 237 240 241 244 246 251 257 259 258 256 255 254 254 255 256 256 257 259 263 266 264 260 258
276 286 287 272 263 258 255 254 249 253 254 253 251 245 242 247 251 248 237 227 228 233 234 232 227 220 215 213 209 205 211 219 218 218 222 224 226 225 227 233 236 237 238 240 245 252 259 262 263 261 259 259 258 258 259 259 259 261 263 261 259 258
160 275 281 274 255 235 244 244 240 253 251 245 248 244 241 245 252 249 234 228 229 232 235 236 231 220 214 212 209 208 209 213 214 214 217 219 223 224 226 232 234 237 237 236 237 243 252 261 267 268 266 264 262 260 260 260 260 257 258 261 261 259
145 204 244 256 232 170 189 234 234 249 254 236 237 238 236 236 240 242 231 224 227 229 232 235 226 214 209 209 209 209 208 209 209 208 209 212 215 219 224 231 235 239 240 241 242 245 251 260 269 270 266 263 261 261 261 261 259 254 255 261 262 260
168 198 228 238 245 130 114 204 213 193 221 211 216 227 223 218 228 239 237 229 229 232 230 221 212 208 208 209 211 210 207 207 207 207 210 215 220 225 230 235 240 246 248 249 251 255 259 265 271 273 271 265 260 259 259 259 257 252 253 257 259 260
215 235 270 278 295 109 154 186 140 118 189 226 230 227 218 217 222 228 234 229 228 229 222 210 208 211 211 212 214 215 214 216 219 222 225 229 234 237 242 244 248 251 254 255 258 262 266 270 272 275 277 275 269 263 260 259 257 253 254 255 257 260
273 295 308 303 317 307 197 204 209 199 214 230 232 230 224 226 226 223 221 220 221 219 213 209 212 216 216 218 223 225 228 233 236 238 241 244 247 250 252 254 255 257 259 260 262 265 269 272 274 275 277 277 275 273 268 265 262 259 258 258 258 260
279 303 312 309 312 307 260 236 231 222 222 226 221 218 217 221 224 215 205 206 209 208 208 212 217 223 226 227 229 232 236 241 245 248 251 253 256 260 261 263 263 263 263 264 266 268 270 271 273 275 276 276 276 275 274 271 268 266 265 264 263 263
273 292 302 311 318 316 295 261 236 216 212 216 209 203 202 201 199 192 190 194 198 203 211 217 221 228 231 229 231 235 241 247 253 255 258 259 261 263 265 266 267 267 267 267 268 269 270 270 270 272 274 276 276 275 275 274 273 272 271 270 270 270
260 282 297 312 320 317 304 276 240 218 209 209 204 198 193 188 183 183 189 195 201 207 213 217 222 229 232 234 238 244 250 254 257 259 260 261 262 265 266 268 269 270 271 271 271 270 270 271 270 270 271 273 274 275 275 275 276 276 276 275 275 274
247 266 284 296 307 307 297 281 249 226 215 206 199 198 199 201 202 205 208 211 215 220 220 223 231 238 241 244 247 251 254 256 259 262 263 263 263 264 266 269 271 273 274 275 275 274 273 272 271 270 269 268 269 271 272 273 275 276 277 277 276 276
232 243 256 266 281 290 285 276 258 236 221 211 209 211 215 219 225 229 230 231 235 237 237 237 241 244 245 247 249 250 253 257 263 267 269 270 269 267 266 268 270 272 275 277 278 279 277 276 275 273 272 271 269 270 271 272 274 275 276 276 277 277
222 226 235 245 261 273 273 268 261 251 239 235 237 238 239 241 242 242 241 241 243 245 245 246 247 248 248 249 250 253 256 261 266 269 272 274 275 274 273 271 271 272 273 276 278 280 280 280 279 278 277 276 275 274 273 273 274 275 277 277 278 277
224 222 224 232 247 261 264 262 262 261 257 255 256 255 256 257 256 255 253 251 251 251 251 252 254 255 257 258 259 261 264 267 270 273 274 276 277 279 279 278 277 275 274 274 276 278 279 280 281 281 280 279 279 278 277 276 276 276 276 276 277 277
233 229 226 228 239 250 256 259 262 264 264 263 263 263 263 264 264 262 260 259 258 258 257 257 259 260 262 263 265 267 270 273 275 276 276 277 277 278 279 280 280 279 278 277 276 277 279 280 280 281 281 281 280 279 279 278 277 275 275 275 275 275
243 241 237 236 241 248 254 259 261 262 263 265 267 268 268 269 269 266 264 263 262 262 262 262 262 263 264 266 268 270 272 274 276 277 278 279 279 279 279 280 280 280 280 280 280 280 280 281 281 281 281 281 281 281 280 279 278 277 275 275 274 274
251 252 253 253 253 255 259 262 264 264 266 267 271 274 276 277 277 274 271 267 266 265 264 264 264 264 265 267 268 270 271 272 274 277 279 281 282 283 283 283 283 282 282 282 282 282 282 282 282 282 282 282 282 281 281 280 279 278 277 276 275 275
256 257 262 267 268 267 266 267 267 268 270 272 275 278 280 282 283 282 279 276 273 271 268 267 266 266 266 266 267 269 271 273 276 278 280 282 284 285 286 285 285 284 284 284 285 285 285 284 284 284 284 284 284 283 282 281 280 279 279 278 277 277
258 259 262 271 276 276 273 270 271 272 274 276 278 279 280 281 282 282 282 282 281 279 277 274 273 272 272 271 272 273 275 276 278 279 280 281 282 283 284 284 285 285 285 285 285 286 285 284 284 284 284 285 285 285 285 284 284 282 281 280 279 279
258 258 259 268 276 277 275 273 273 274 277 279 281 282 282 281 280 281 281 283 284 284 283 282 281 279 278 278 278 278 279 280 281 281 280 278 278 279 280 282 283 284 285 286 286 286 285 284 284 283 283 284 284 285 286 286 286 285 284 283 282 282
257 256 256 260 269 273 275 276 275 275 276 278 281 282 283 283 282 281 281 282 283 284 285 285 284 283 282 281 281 281 280 280 280 279 278 277 278 279 281 283 284 285 286 286 286 286 285 284 283 283 282 281 281 281 283 284 284 285 285 285 285 285
250 248 247 249 259 268 275 280 281 279 276 275 277 280 281 281 281 282 282 282 281 282 282 283 284 284 284 283 282 282 282 281 281 280 280 281 282 283 284 285 285 285 285 285 284 284 283 282 281 281 281 280 280 279 280 282 282 282 282 282 282 283
243 242 242 246 256 267 276 283 283 280 277 275 276 278 280 280 282 283 283 281 279 278 279 280 282 282 282 282 282 282 282 283 284 284 284 285 285 285 285 285 284 284 284 283 283 283 283 282 281 280 280 279 279 279 279 279 280 281 281 280 280 281
242 244 245 248 260 272 276 279 279 278 276 275 276 278 280 282 284 285 284 283 280 278 278 278 279 280 279 280 279 280 280 280 281 281 282 283 283 283 282 282 281 281 281 282 282 283 283 283 282 282 281 280 280 279 279 279 279 280 281 281 281 281
243 249 249 253 271 280 276 275 275 275 274 274 275 276 279 282 284 285 285 284 282 281 280 280 279 279 279 279 278 278 278 278 279 279 281 282 282 282 282 281 281 281 282 283 284 284 284 284 284 283 283 283 282 281 281 281 280 279 281 283 283 281
242 250 254 265 280 279 273 273 273 273 273 273 273 274 276 279 281 283 283 282 282 281 281 280 280 280 281 282 282 281 280 280 280 280 281 282 282 282 282 282 282 283 284 285 285 285 285 285 285 284 283 282 281 280 280 280 280 279 279 282 283 283
238 245 253 264 270 267 266 266 267 268 268 269 271 273 275 277 279 280 281 281 280 280 279 278 277 277 278 279 281 282 283 282 281 281 282 282 282 281 281 282 284 286 286 287 286 286 285 285 285 284 282 281 281 281 281 280 280 280 278 278 280 282
237 239 244 249 251 253 254 255 256 260 263 266 270 273 276 278 280 280 280 279 278 278 277 277 276 275 275 276 278 280 282 282 282 282 282 282 282 283 284 286 287 288 288 288 288 288 287 287 287 286 285 285 285 285 285 284 283 281 279 279 281 283
236 235 235 237 241 244 247 251 255 259 264 269 273 277 280 282 282 282 282 280 279 278 277 276 275 274 275 276 278 279 281 282 283 284 284 284 284 286 287 289 289 290 291 291 291 291 291 291 291 290 290 289 290 289 288 286 285 283 280 281 283 283
240 239 238 240 243 247 252 258 262 266 270 275 280 283 284 284 285 285 285 284 283 283 282 280 278 278 278 280 281 283 283 284 284 284 285 285 286 287 290 292 294 296 296 295 294 294 293 292 291 292 292 293 292 291 290 288 286 284 282 281 281 281
259 256 254 254 255 259 264 268 271 273 276 280 283 284 285 285 285 286 286 286 286 286 286 285 284 283 284 285 286 286 285 285 285 285 286 287 289 291 294 298 300 301 300 298 297 295 293 291 292 293 294 294 294 293 292 290 289 287 284 281 279 278
273 272 271 270 271 272 272 272 273 275 277 280 283 284 285 284 284 285 285 285 286 286 286 285 285 286 287 288 288 288 287 287 288 288 290 291 294 297 300 303 304 303 302 300 298 296 295 295 296 296 296 297 298 298 296 294 293 291 286 281 276 272
281 280 278 278 278 277 277 277 278 279 280 282 283 284 284 284 284 285 284 283 284 285 284 284 285 287 288 289 288 288 288 289 290 291 294 296 300 303 306 307 306 305 303 300 298 298 299 299 299 299 299 301 302 302 300 299 297 292 286 282 276 269
Height
5816 5816 5816 5815 5816 5816 5815 5816 5815 5815 5815 5816 5816 5817 5817 5818 5818 5818 5818 5819 5819 5820 5820 5821 5822 5822 5822 5823 5824 5824 5825 5825 5826 5826 5827 5827 5828 5828 5828 5829 5829 5829 5829 5829 5830 5830 5830 5830 5831 5831 5832 5832 5833 5833 5834 5834 5834 5834 5835 5835 5836 5836
5816 5816 5816 5816 5815 5815 5815 5816 5815 5814 5815 5816 5816 5817 5817 5817 5818 5818 5818 5818 5819 5819 5820 5821 5821 5822 5822 5823 5823 5824 5825 5825 5826 5826 5827 5827 5828 5828 5828 5828 5828 5828 5828 5828 5828 5829 5829 5829 5829 5829 5830 5830 5831 5831 5832 5832 5832 5833 5833 5833 5834 5834
5816 5816 5816 5816 5815 5815 5815 5816 5816 5815 5815 5816 5816 5817 5817 5817 5817 5818 5818 5818 5819 5819 5820 5821 5821 5821 5822 5822 5823 5824 5824 5825 5825 5826 5826 5827 5827 5827 5828 5828 5827 5827 5827 5827 5828 5828 5828 5828 5828 5828 5828 5829 5829 5829 5830 5830 5831 5831 5832 5832 5833 5833
5816 5815 5815 5816 5815 5815 5815 5816 5816 5815 5816 5817 5817 5817 5817 5817 5817 5817 5817 5818 5818 5819 5820 5820 5821 5821 5821 5822 5822 5823 5824 5825 5825 5825 5825 5826 5826 5826 5827 5827 5827 5827 5827 5827 5827 5827 5827 5827 5827 5827 5827 5827 5828 5828 5828 5829 5830 5830 5831 5832 5831 5831
5815 5815 5815 5815 5815 5814 5815 5815 5815 5815 5816 5816 5816 5816 5817 5817 5817 5817 5817 5817 5818 5818 5819 5819 5820 5820 5821 5821 5822 5823 5824 5824 5824 5824 5824 5825 5825 5825 5826 5826 5826 5826 5826 5826 5826 5826 5825 5825 5826 5826 5826 5826 5827 5827 5828 5828 5828 5830 5831 5829 5829 5829
5814 5814 5814 5814 5814 5813 5814 5814 5815 5816 5816 5815 5815 5815 5816 5816 5816 5815 5816 5816 5817 5818 5818 5819 5819 5819 5820 5820 5821 5822 5823 5822 5822 5823 5823 5823 5824 5824 5825 5825 5825 5825 5825 5825 5824 5824 5824 5824 5825 5825 5825 5825 5826 5826 5827 5827 5827 5829 5828 5826 5827 5827
5815 5814 5813 5813 5813 5813 5814 5814 5815 5814 5814 5814 5814 5814 5814 5815 5815 5815 5815 5816 5816 5817 5818 5818 5818 5819 5820 5820 5820 5821 5821 5821 5822 5822 5822 5822 5823 5823 5823 5824 5824 5824 5824 5824 5823 5823 5824 5824 5824 5825 5824 5825 5825 5825 5825 5825 5826 5828 5825 5824 5826 5826
5817 5815 5814 5814 5814 5814 5814 5814 5814 5812 5812 5812 5812 5813 5813 5814 5814 5814 5815 5815 5816 5817 5817 5818 5818 5819 5819 5820 5820 5820 5820 5821 5821 5821 5821 5822 5822 5822 5822 5823 5823 5823 5823 5823 5823 5823 5823 5824 5824 5824 5823 5823 5823 5823 5824 5823 5825 5825 5824 5824 5824 5824
5816 5815 5815 5815 5815 5816 5814 5813 5813 5812 5811 5811 5811 5812 5813 5813 5813 5814 5814 5814 5815 5816 5817 5818 5818 5819 5819 5819 5820 5820 5820 5820 5821 5821 5821 5821 5821 5821 5822 5822 5822 5822 5822 5822 5823 5823 5823 5823 5823 5823 5822 5822 5822 5822 5822 5822 5823 5823 5822 5822 5821 5822
5815 5815 5814 5815 5815 5817 5816 5813 5812 5812 5811 5810 5811 5811 5812 5812 5813 5813 5813 5814 5815 5816 5817 5817 5818 5818 5819 5819 5819 5819 5820 5820 5821 5821 5821 5821 5821 5821 5821 5821 5821 5821 5821 5822 5822 5822 5822 5822 5822 5822 5822 5822 5821 5821 5821 5821 5821 5822 5821 5820 5820 5820
5814 5814 5814 5813 5814 5815 5816 5814 5813 5813 5812 5810 5811 5811 5811 5812 5812 5812 5812 5813 5814 5816 5817 5817 5818 5818 5818 5819 5819 5819 5820 5820 5820 5820 5821 5821 5821 5821 5821 5821 5821 5821 5821 5821 5821 5821 5821 5821 5821 5821 5821 5821 5820 5820 5820 5819 5820 5820 5819 5819 5819 5819
5813 5813 5813 5813 5813 5813 5813 5813 5812 5813 5812 5811 5811 5811 5811 5812 5812 5812 5812 5813 5814 5815 5816 5817 5817 5818 5818 5818 5818 5819 5819 5819 5820 5820 5820 5820 5820 5820 5820 5820 5820 5820 5820 5820 5820 5821 5821 5820 5820 5820 5820 5820 5819 5819 5818 5818 5818 5818 5818 5818 5818 5818
5812 5812 5812 5812 5812 5812 5812 5812 5811 5811 5811 5811 5811 5811 5811 5812 5812 5812 5812 5813 5814 5815 5815 5816 5817 5817 5818 5818 5818 5818 5819 5819 5819 5819 5819 5820 5820 5820 5820 5820 5820 5819 5819 5819 5820 5820 5819 5819 5819 5819 5819 5819 5818 5818 5817 5817 5817 5817 5817 5817 5817 5816
5813 5813 5813 5812 5812 5812 5812 5812 5811 5811 5811 5811 5811 5812 5812 5812 5812 5813 5813 5813 5813 5814 5815 5816 5816 5817 5817 5817 5817 5818 5818 5818 5818 5818 5818 5819 5819 5819 5819 5819 5819 5819 5818 5818 5818 5818 5818 5817 5817 5817 5817 5817 5817 5816 5816 5816 5815 5815 5815 5816 5816 5815
5813 5813 5813 5813 5812 5812 5813 5812 5812 5812 5812 5812 5812 5813 5813 5813 5813 5814 5814 5814 5815 5815 5816 5816 5816 5816 5816 5817 5817 5817 5817 5817 5817 5817 5818 5818 5818 5818 5818 5818 5818 5818 5817 5817 5817 5817 5816 5816 5815 5815 5816 5816 5815 5815 5814 5814 5814 5814 5814 5814 5814 5814
5813 5813 5813 5813 5813 5813 5813 5813 5813 5813 5813 5813 5814 5814 5814 5814 5814 5815 5815 5815 5816 5816 5816 5816 5816 5816 5816 5816 5816 5816 5816 5816 5817 5817 5817 5817 5817 5817 5817 5817 5817 5817 5816 5816 5816 5816 5815 5815 5814 5814 5814 5814 5814 5814 5813 5812 5812 5812 5812 5812 5812 5813
5813 5813 5813 5813 5813 5813 5814 5814 5814 5815 5815 5815 5815 5815 5815 5815 5815 5815 5815 5815 5816 5816 5816 5815 5815 5815 5815 5815 5815 5816 5816 5816 5816 5816 5815 5815 5815 5815 5815 5815 5815 5815 5815 5815 5815 5814 5814 5813 5813 5813 5813 5812 5812 5812 5811 5811 5810 5810 5810 5809 5810 5810
5812 5812 5813 5813 5813 5814 5814 5814 5815 5815 5815 5815 5815 5816 5816 5816 5816 5815 5815 5815 5815 5815 5815 5815 5815 5815 5814 5814 5814 5814 5815 5815 5815 5815 5814 5814 5814 5814 5813 5813 5813 5813 5813 5813 5813 5813 5812 5812 5811 5811 5811 5811 5810 5810 5809 5809 5808 5808 5807 5807 5807 5807
5812 5812 5813 5813 5813 5814 5814 5815 5815 5815 5815 5815 5815 5816 5816 5816 5815 5815 5815 5815 5815 5815 5814 5814 5814 5814 5814 5813 5813 5813 5813 5813 5813 5813 5813 5813 5813 5813 5812 5812 5812 5811 5811 5811 5811 5811 5811 5810 5809 5809 5808 5808 5808 5807 5807 5806 5806 5806 5805 5805 5805 5805
5812 5812 5812 5813 5813 5813 5814 5814 5815 5815 5815 5815 5815 5815 5815 5815 5815 5815 5815 5814 5814 5814 5814 5813 5813 5813 5813 5813 5812 5812 5812 5812 5812 5812 5811 5811 5811 5811 5811 5811 5810 5810 5809 5809 5809 5809 5809 5808 5807 5807 5806 5806 5805 5805 5804 5804 5804 5803 5803 5803 5802 5802
5812 5812 5812 5812 5813 5813 5814 5814 5814 5814 5814 5814 5814 5814 5814 5814 5814 5814 5814 5813 5813 5813 5813 5812 5812 5812 5812 5812 5811 5811 5811 5810 5810 5810 5810 5810 5809 5809 5809 5809 5808 5808 5807 5807 5807 5807 5807 5806 5805 5804 5804 5803 5803 5802 5802 5801 5801 5801 5800 5800 5799 5799
5811 5812 5812 5812 5812 5813 5813 5814 5814 5814 5814 5814 5814 5813 5813 5813 5813 5813 5812 5812 5812 5811 5811 5811 5811 5811 5810 5810 5810 5810 5809 5809 5809 5808 5808 5808 5807 5807 5806 5806 5806 5806 5805 5805 5805 5805 5804 5804 5803 5803 5802 5801 5800 5800 5799 5799 5798 5798 5797 5797 5796 5795
5811 5812 5812 5812 5812 5812 5813 5813 5813 5814 5814 5814 5813 5813 5813 5812 5812 5812 5811 5811 5810 5810 5809 5809 5809 5809 5809 5808 5808 5808 5807 5807 5807 5807 5806 5806 5805 5805 5804 5804 5803 5803 5803 5803 5802 5802 5802 5801 5801 5801 5800 5799 5798 5797 5796 5796 5795 5795 5795 5794 5793 5792
5811 5812 5812 5812 5812 5812 5813 5813 5813 5813 5813 5813 5813 5812 5812 5812 5811 5811 5810 5810 5809 5808 5808 5807 5807 5807 5807 5806 5806 5806 5806 5805 5805 5805 5805 5804 5804 5803 5802 5802 5802 5801 5801 5800 5800 5800 5799 5799 5798 5798 5797 5797 5796 5795 5794 5793 5792 5792 5791 5791 5790 5789
5811 5811 5812 5812 5812 5812 5812 5812 5813 5812 5812 5812 5812 5812 5811 5810 5810 5810 5809 5809 5808 5807 5806 5806 5805 5805 5805 5804 5804 5804 5803 5803 5803 5803 5802 5802 5802 5801 5801 5800 5800 5799 5799 5798 5798 5797 5797 5796 5796 5795 5795 5794 5794 5793 5792 5791 5789 5788 5788 5787 5787 5786
5810 5811 5811 5811 5811 5812 5812 5812 5812 5811 5811 5811 5811 5811 5810 5809 5809 5809 5808 5808 5807 5806 5805 5805 5804 5803 5803 5803 5802 5802 5801 5801 5801 5800 5800 5800 5799 5799 5799 5798 5797 5797 5796 5796 5795 5795 5794 5794 5793 5793 5792 5791 5791 5791 5790 5788 5787 5786 5785 5784 5784 5783
5810 5810 5811 5811 5811 5811 5811 5811 5810 5810 5810 5810 5810 5809 5809 5808 5808 5807 5807 5806 5806 5805 5804 5804 5803 5802 5802 5801 5801 5800 5800 5799 5798 5798 5797 5797 5797 5796 5796 5795 5795 5794 5794 5793 5792 5792 5791 5791 5790 5790 5789 5789 5788 5788 5787 5786 5784 5783 5782 5780 5780 5779
5809 5810 5810 5810 5810 5810 5810 5809 5809 5809 5809 5808 5808 5808 5807 5807 5807 5806 5805 5805 5804 5804 5803 5803 5802 5801 5800 5800 5799 5799 5798 5798 5797 5796 5795 5795 5794 5794 5793 5793 5792 5792 5791 5790 5789 5789 5788 5787 5787 5786 5786 5785 5785 5784 5784 5783 5782 5781 5779 5777 5776 5775
5808 5808 5809 5809 5809 5809 5808 5808 5808 5808 5807 5807 5807 5806 5806 5805 5805 5805 5804 5803 5803 5802 5802 5801 5800 5800 5799 5798 5798 5797 5797 5796 5795 5794 5793 5793 5792 5791 5790 5790 5789 5788 5787 5787 5786 5785 5785 5784 5783 5783 5782 5782 5781 5781 5780 5780 5779 5778 5777 5774 5771 5771
5807 5807 5807 5808 5808 5807 5807 5807 5807 5806 5806 5806 5806 5805 5805 5804 5804 5803 5803 5802 5801 5801 5800 5800 5799 5798 5797 5796 5796 5795 5794 5794 5793 5792 5791 5790 5789 5788 5787 5787 5786 5785 5784 5784 5783 5782 5781 5781 5780 5779 5779 5778 5778 5777 5777 5777 5776 5775 5775 5771 5767 5767
5806 5806 5806 5806 5806 5806 5806 5806 5806 5805 5805 5805 5805 5804 5804 5803 5803 5802 5802 5801 5800 5799 5798 5798 5797 5796 5796 5795 5794 5793 5792 5791 5791 5790 5789 5788 5787 5786 5785 5784 5783 5783 5782 5781 5780 5779 5778 5778 5777 5776 5776 5775 5775 5774 5774 5774 5773 5772 5772 5768 5764 5764
5805 5805 5805 5805 5805 5805 5805 5805 5804 5804 5804 5804 5804 5803 5803 5802 5802 5801 5800 5800 5799 5798 5797 5796 5795 5795 5794 5793 5792 5791 5790 5790 5789 5788 5787 5786 5785 5784 5783 5782 5781 5780 5779 5778 5777 5776 5775 5775 5774 5773 5772 5772 5772 5771 5771 5771 5770 5770 5768 5764 5762 5762
5804 5804 5804 5804 5804 5803 5803 5803 5803 5803 5803 5802 5802 5802 5802 5801 5800 5800 5799 5798 5797 5796 5795 5794 5793 5793 5792 5791 5791 5790 5788 5787 5786 5785 5784 5783 5782 5781 5780 5779 5778 5777 5776 5775 5774 5773 5772 5771 5770 5770 5769 5769 5768 5768 5768 5767 5767 5766 5765 5762 5760 5759
5803 5803 5803 5803 5803 5803 5802 5802 5802 5802 5801 5801 5801 5800 5800 5800 5799 5798 5797 5796 5795 5794 5793 5793 5791 5791 5790 5789 5788 5787 5786 5785 5783 5782 5781 5780 5779 5778 5777 5776 5775 5774 5772 5771 5771 5770 5769 5769 5768 5767 5766 5766 5765 5765 5765 5764 5763 5763 5762 5760 5758 5755
5803 5802 5802 5802 5802 5802 5801 5801 5800 5800 5799 5799 5799 5798 5798 5797 5796 5795 5794 5794 5793 5792 5791 5790 5789 5788 5787 5786 5785 5784 5783 5782 5781 5780 5779 5778 5777 5776 5774 5773 5772 5771 5769 5768 5768 5767 5767 5766 5766 5765 5764 5763 5763 5762 5761 5760 5760 5759 5758 5758 5757 5753
5802 5802 5802 5802 5801 5801 5800 5800 5799 5798 5798 5797 5797 5796 5795 5795 5794 5793 5792 5791 5791 5790 5789 5788 5787 5786 5785 5784 5783 5781 5780 5779 5778 5777 5776 5775 5774 5773 5772 5770 5769 5767 5766 5766 5765 5765 5765 5764 5764 5763 5762 5761 5760 5758 5758 5757 5756 5756 5754 5754 5754 5753
5801 5801 5801 5801 5800 5800 5799 5799 5798 5797 5796 5795 5795 5794 5793 5792 5792 5791 5790 5789 5789 5788 5787 5786 5785 5784 5783 5781 5780 5779 5778 5776 5775 5774 5773 5772 5771 5770 5769 5767 5766 5765 5764 5764 5763 5763 5763 5762 5762 5761 5760 5758 5757 5755 5754 5754 5753 5753 5752 5750 5750 5750